TimeCDT,TemperatureF,Dew PointF,Humidity,Sea Level PressureIn,VisibilityMPH,Wind Direction,Wind SpeedMPH,Gust SpeedMPH,PrecipitationIn,Events,Conditions,WindDirDegrees,DateUTC
12:15 AM,52.0,41.5,68,30.07,10.0,North,16.1,24.2,N/A,,Overcast,10,2012-10-26 05:15:00
12:35 AM,52.0,41.5,68,30.08,10.0,North,11.5,18.4,N/A,,Overcast,10,2012-10-26 05:35:00
12:55 AM,51.8,41.0,67,30.08,10.0,North,11.5,23.0,N/A,,Overcast,10,2012-10-26 05:55:00
1:35 AM,51.1,41.0,68,30.09,10.0,North,10.4,23.0,N/A,,Overcast,10,2012-10-26 06:35:00
1:55 AM,51.1,41.2,69,30.09,10.0,North,10.4,17.3,N/A,,Overcast,10,2012-10-26 06:55:00
2:15 AM,50.5,41.0,70,30.10,10.0,North,11.5,18.4,N/A,,Overcast,10,2012-10-26 07:15:00
2:35 AM,50.4,41.0,70,30.09,10.0,North,16.1,25.3,N/A,,Overcast,10,2012-10-26 07:35:00
2:55 AM,50.2,40.3,69,30.10,10.0,North,16.1,20.7,N/A,,Overcast,10,2012-10-26 07:55:00
3:15 AM,50.2,40.5,69,30.10,10.0,North,13.8,19.6,N/A,,Overcast,10,2012-10-26 08:15:00
3:35 AM,50.2,40.1,68,30.10,10.0,North,15.0,20.7,N/A,,Overcast,10,2012-10-26 08:35:00
3:55 AM,50.0,40.1,69,30.10,10.0,North,9.2,18.4,N/A,,Overcast,10,2012-10-26 08:55:00
4:15 AM,50.0,40.3,69,30.09,10.0,North,8.1,20.7,N/A,,Overcast,10,2012-10-26 09:15:00
4:35 AM,49.6,39.6,68,30.09,10.0,North,10.4,20.7,N/A,,Overcast,10,2012-10-26 09:35:00
5:15 AM,49.1,40.3,72,30.11,10.0,North,12.7,19.6,N/A,Rain,Light Rain,360,2012-10-26 10:15:00
5:35 AM,49.1,40.3,72,30.11,10.0,North,13.8,18.4,N/A,,Overcast,360,2012-10-26 10:35:00
5:55 AM,49.1,40.6,73,30.12,10.0,North,10.4,16.1,N/A,,Overcast,10,2012-10-26 10:55:00
6:15 AM,49.1,40.3,72,30.13,10.0,North,11.5,18.4,N/A,,Overcast,360,2012-10-26 11:15:00
6:35 AM,49.1,40.3,72,30.14,10.0,North,12.7,18.4,N/A,,Overcast,10,2012-10-26 11:35:00
6:55 AM,49.1,40.3,72,30.15,10.0,North,12.7,18.4,N/A,,Overcast,360,2012-10-26 11:55:00
7:35 AM,48.2,40.1,74,30.15,10.0,North,10.4,17.3,N/A,Thunderstorm,Overcast,360,2012-10-26 12:35:00
7:55 AM,48.2,40.1,74,30.17,10.0,North,12.7,16.1,N/A,Thunderstorm,Overcast,10,2012-10-26 12:55:00
8:15 AM,48.0,40.1,74,30.18,10.0,North,10.4,21.9,N/A,Thunderstorm,Overcast,360,2012-10-26 13:15:00
8:35 AM,48.2,40.6,75,30.19,10.0,North,9.2,18.4,N/A,,Overcast,10,2012-10-26 13:35:00
9:15 AM,47.7,40.3,76,30.21,10.0,North,12.7,18.4,N/A,Thunderstorm,Overcast,10,2012-10-26 14:15:00
9:35 AM,47.8,39.9,74,30.21,10.0,North,13.8,21.9,N/A,,Overcast,360,2012-10-26 14:35:00
9:55 AM,48.2,39.6,72,30.22,10.0,North,10.4,23.0,N/A,,Overcast,10,2012-10-26 14:55:00
10:15 AM,48.2,39.6,72,30.22,10.0,North,15.0,23.0,N/A,,Overcast,360,2012-10-26 15:15:00
10:35 AM,48.6,39.4,71,30.22,10.0,NNE,15.0,23.0,N/A,,Overcast,20,2012-10-26 15:35:00
10:55 AM,49.5,40.1,70,30.23,10.0,North,15.0,20.7,N/A,,Overcast,10,2012-10-26 15:55:00
11:15 AM,49.1,39.6,70,30.25,10.0,North,17.3,21.9,N/A,,Overcast,10,2012-10-26 16:15:00
11:35 AM,50.2,40.1,68,30.24,10.0,NNE,16.1,23.0,N/A,,Overcast,20,2012-10-26 16:35:00
12:15 PM,51.6,40.3,65,30.25,10.0,North,11.5,20.7,N/A,,Overcast,10,2012-10-26 17:15:00
12:35 PM,50.9,39.7,66,30.26,10.0,North,10.4,20.7,N/A,,Overcast,10,2012-10-26 17:35:00
12:55 PM,51.4,40.1,65,30.26,10.0,North,10.4,21.9,N/A,,Overcast,360,2012-10-26 17:55:00
1:15 PM,50.9,39.6,65,30.26,10.0,North,10.4,21.9,N/A,,Overcast,10,2012-10-26 18:15:00
1:35 PM,51.1,39.6,65,30.25,10.0,NNE,13.8,20.7,N/A,,Overcast,20,2012-10-26 18:35:00
1:55 PM,51.3,39.0,63,30.25,10.0,North,12.7,20.7,N/A,,Overcast,10,2012-10-26 18:55:00
2:15 PM,52.2,39.0,61,30.24,10.0,North,15.0,21.9,N/A,,Overcast,10,2012-10-26 19:15:00
2:35 PM,52.9,39.0,59,30.23,10.0,North,15.0,19.6,N/A,,Overcast,360,2012-10-26 19:35:00
2:55 PM,52.5,38.3,58,30.23,10.0,NNE,15.0,24.2,N/A,,Overcast,20,2012-10-26 19:55:00
3:15 PM,52.7,38.5,58,30.23,10.0,NNE,16.1,19.6,N/A,,Overcast,20,2012-10-26 20:15:00
3:35 PM,52.5,38.1,58,30.23,10.0,North,11.5,18.4,N/A,,Overcast,360,2012-10-26 20:35:00
3:55 PM,52.5,38.3,58,30.23,10.0,North,12.7,23.0,N/A,,Overcast,360,2012-10-26 20:55:00
4:15 PM,52.9,37.8,56,30.22,10.0,North,17.3,24.2,N/A,,Mostly Cloudy,10,2012-10-26 21:15:00
4:35 PM,53.2,37.2,55,30.22,10.0,North,17.3,25.3,N/A,,Scattered Clouds,350,2012-10-26 21:35:00
4:55 PM,53.2,36.7,53,30.22,10.0,North,16.1,25.3,N/A,,Clear,350,2012-10-26 21:55:00
5:15 PM,52.9,36.0,53,30.22,10.0,North,17.3,23.0,N/A,,Clear,360,2012-10-26 22:15:00
5:35 PM,52.7,35.2,52,30.22,10.0,North,11.5,24.2,N/A,,Clear,10,2012-10-26 22:35:00
5:55 PM,52.5,34.7,51,30.22,10.0,North,13.8,20.7,N/A,,Clear,10,2012-10-26 22:55:00
6:15 PM,51.6,34.2,51,30.22,10.0,NNE,10.4,20.7,N/A,,Clear,20,2012-10-26 23:15:00
6:35 PM,50.5,34.2,53,30.23,10.0,NNE,9.2,-,N/A,,Clear,20,2012-10-26 23:35:00
6:55 PM,49.8,34.5,56,30.24,10.0,North,8.1,-,N/A,,Clear,10,2012-10-26 23:55:00
7:15 PM,49.1,34.3,57,30.25,10.0,NNE,6.9,-,N/A,,Clear,20,2012-10-27 00:15:00
7:35 PM,48.6,34.2,58,30.25,10.0,NNE,6.9,-,N/A,,Clear,20,2012-10-27 00:35:00
8:15 PM,47.3,34.7,62,30.27,10.0,North,4.6,-,N/A,,Clear,10,2012-10-27 01:15:00
8:35 PM,47.1,34.9,62,30.28,10.0,North,8.1,-,N/A,,Clear,10,2012-10-27 01:35:00
9:15 PM,47.1,34.3,61,30.28,10.0,North,8.1,-,N/A,,Clear,10,2012-10-27 02:15:00
9:35 PM,46.6,34.0,62,30.29,10.0,North,8.1,-,N/A,,Clear,10,2012-10-27 02:35:00
9:55 PM,46.6,33.3,60,30.30,10.0,NNE,8.1,-,N/A,,Clear,20,2012-10-27 02:55:00
10:15 PM,46.4,32.5,59,30.30,10.0,North,6.9,16.1,N/A,,Clear,10,2012-10-27 03:15:00
10:35 PM,45.1,32.9,62,30.30,10.0,North,5.8,-,N/A,,Clear,10,2012-10-27 03:35:00
10:55 PM,44.6,32.5,63,30.30,10.0,North,5.8,-,N/A,,Clear,10,2012-10-27 03:55:00
11:15 PM,43.9,32.7,65,30.30,10.0,NNE,6.9,-,N/A,,Clear,20,2012-10-27 04:15:00
11:35 PM,43.0,32.5,67,30.30,10.0,NNE,6.9,-,N/A,,Clear,20,2012-10-27 04:35:00